INTELSAT 33E DEB, 64404

Orbit data source: Space-Track

INTELSAT 33E DEB, 64404 is space debris in GEO originally from a launch on Wed, 24 Aug 2016 UTC launched from the French Guiana (FRGUI). Debris objects in space refer to the collection of defunct objects orbiting the Earth. Examples of debris include non-operational satellites, rocket bodies, and fragments generated from explosions, collisions, or faulty payload assembly.

Not visible in the next 10 days
Identifier
64404, 2016-053AJ
Orbit
GEO
Country
Flag of USUS / ITSO
Related business
Manufacturer
Boeing/ES
Mission
Spacecraft
Bus & Motor
Unknown
Mass
Unknown
Launch date (UTC)
2016-08-24 (10 years ago)
Launch vehicle
Unknown
Launch site
French Guiana (FRGUI)
Object type
Payload
Rocket body
Debris
Shape & HBR
Unknown shape, 1.1 m
Radar Cross Section
RCS unknown

Expand to show TLE details & history
Last TLE update: 22 hours ago

TLE from 22 hours ago
0 INTELSAT 33E DEB
1 64404U 16053AJ  26120.62248940 -.00000270  00000-0  00000-0 0  9999
2 64404   1.3121  59.5237 0111901  25.7285 334.5009  0.99880074  5432
Epoch: 2026-04-30T14:56Z
TLE epoch observation values (Epoch: 2026-04-30T14:56:23.084Z)
Latitude
-0.00001°
Longitude
-23.46327°
Altitude
35,469.417 km
Speed
3.102 km/s
True Right ascension
03h 56m 47s
True Declination
0° 00' 00"
Sunlit
Object was in daylight at epoch
Visualization orbit readout
Latitude
Unknown
Longitude
Unknown
Altitude
Unknown
Speed
Unknown
Apparent Right ascension
Unknown
Apparent Declination
Unknown
Sunlit
N/A
Visualization observer readout
Local Sidereal Time
20:33:36
Azimuth
Unknown
Elevation
Unknown
Doppler factor
Unknown
Orbital elements
Apogee altitude
36,370.904 km
Perigee altitude
35,424.759 km
Semi-major axis
42,275.969 km
Eccentricity
0.01119
Inclination
1.3121°
RAAN
59.5237°
Arg. of periapsis
25.7285°
True anomaly
333.94183°
Mean anomaly
334.5009°
Eccentric anomaly
334.22208°
Mean motion
0.24969 °/min
Orbital period
1,441.78 mins
BSTAR
0
Loading maneuver chart data...
Computing Atmospheric mass density...
Loading historical data...
Loading historical data...
Loading historical data...
Loading historical data...
Loading historical data...
Loading historical data...
Loading historical data...

Documentation

Showing up to 5 results
|